Eagle River, WI

3:02 PM CDT on August 20, 2017 (GMT -0500)
Eagle River Union

Weather History for KEGV - November, 2012

Change the Weather History Date:

Thursday, November 22, 2012

  Actual Average Record
Temperature  
Mean Temperature 44 °F -  
Max Temperature 59 °F 34 °F 59 °F (2012)
Min Temperature 30 °F 21 °F -6 °F (2008)
Degree Days  
Heating Degree Days 20    
Moisture  
Dew Point 36 °F    
Average Humidity 63    
Maximum Humidity 100    
Minimum Humidity 45    
Precipitation  
Precipitation 0.00 in - - ()
Sea Level Pressure  
Sea Level Pressure 29.64 in    
Wind  
Wind Speed 10 mph (SW)    
Max Wind Speed 18 mph    
Max Gust Speed 28 mph    
Visibility 9 miles    
Events Snow    
Averages and records for this station are not official NWS values.
T = Trace of Precipitation, MM = Missing Value Source: NWS Daily Summary

Daily Weather History Graph

Daily Weather History Graph

Search for Another Location

Airport or City:

Trip Planner

Search our weather history database for the weather conditions in past years. The results will help you decide how hot, cold, wet, or windy it might be!

Date:

Astronomy

Nov. 22, 2012 Rise Set
Actual Time 7:07 AM CST 4:18 PM CST
Civil Twilight 6:34 AM CST 4:51 PM CST
Nautical Twilight 5:57 AM CST 5:28 PM CST
Astronomical Twilight 5:22 AM CST 6:04 PM CST
Moon 1:18 PM CST (11/22) 1:11 AM CST (11/22)
Length of Visible Light 10h 17m
Length of Day
9h 11m
Waxing Gibbous, 71% of the Moon is Illuminated
Nov 22
Waxing Gibbous
Nov 28
Full
Dec 6
Last Quarter
Dec 13
New
Dec 19
First Quarter

Hourly Weather History & Observations

Time (CST) Temp. Windchill Dew Point Humidity Pressure Visibility Wind Dir Wind Speed Gust Speed Precip Events Conditions
12:15 AM 46.4 °F 42.4 °F 37.4 °F 71% 29.81 in 10.0 mi SW 8.1 mph - N/A   Clear
12:35 AM 46.4 °F 42.4 °F 37.4 °F 71% 29.80 in 10.0 mi SSW 8.1 mph - N/A   Clear
12:55 AM 48.2 °F - 37.4 °F 66% 29.79 in 10.0 mi SSW 9.2 mph - N/A   Clear
1:15 AM 50.0 °F - 37.4 °F 62% 29.78 in 10.0 mi SSW 6.9 mph - N/A   Clear
1:35 AM 50.0 °F - 37.4 °F 62% 29.78 in 10.0 mi SSW 9.2 mph - N/A   Clear
1:55 AM 50.0 °F - 37.4 °F 62% 29.77 in 10.0 mi SSW 9.2 mph - N/A   Clear
2:15 AM 50.0 °F - 37.4 °F 62% 29.76 in 10.0 mi SSW 8.1 mph - N/A   Clear
2:35 AM 51.8 °F - 37.4 °F 58% 29.75 in 10.0 mi SSW 6.9 mph - N/A   Clear
2:55 AM 51.8 °F - 37.4 °F 58% 29.74 in 10.0 mi SSW 10.4 mph - N/A   Clear
3:15 AM 50.0 °F - 37.4 °F 62% 29.73 in 10.0 mi SSW 9.2 mph 18.4 mph N/A   Clear
3:35 AM 50.0 °F - 37.4 °F 62% 29.72 in 10.0 mi SSW 9.2 mph - N/A   Clear
3:55 AM 50.0 °F - 37.4 °F 62% 29.72 in 10.0 mi SW 11.5 mph 17.3 mph N/A   Clear
4:15 AM 50.0 °F - 37.4 °F 62% 29.71 in 10.0 mi SSW 9.2 mph 18.4 mph N/A   Clear
4:35 AM 50.0 °F - 37.4 °F 62% 29.70 in 10.0 mi SSW 8.1 mph 16.1 mph N/A   Clear
4:55 AM 50.0 °F - 37.4 °F 62% 29.69 in 10.0 mi SSW 8.1 mph - N/A   Clear
5:15 AM 50.0 °F - 37.4 °F 62% 29.69 in 10.0 mi SSW 10.4 mph 16.1 mph N/A   Clear
5:35 AM 50.0 °F - 37.4 °F 62% 29.69 in 10.0 mi SSW 8.1 mph 17.3 mph N/A   Clear
5:55 AM 50.0 °F - 37.4 °F 62% 29.69 in 10.0 mi SSW 8.1 mph - N/A   Clear
6:15 AM 50.0 °F - 37.4 °F 62% 29.68 in 10.0 mi SSW 9.2 mph 16.1 mph N/A   Clear
6:35 AM 48.2 °F - 37.4 °F 66% 29.67 in 10.0 mi SSW 9.2 mph 17.3 mph N/A   Clear
6:55 AM 48.2 °F - 37.4 °F 66% 29.67 in 10.0 mi SSW 8.1 mph 17.3 mph N/A   Clear
7:15 AM 48.2 °F - 37.4 °F 66% 29.66 in 10.0 mi SSW 10.4 mph 16.1 mph N/A   Clear
7:35 AM 48.2 °F - 37.4 °F 66% 29.65 in 10.0 mi SSW 8.1 mph - N/A   Clear
7:55 AM 50.0 °F - 37.4 °F 62% 29.65 in 10.0 mi SSW 9.2 mph 16.1 mph N/A   Clear
8:15 AM 50.0 °F - 37.4 °F 62% 29.65 in 10.0 mi SSW 9.2 mph 18.4 mph N/A   Clear
8:35 AM 50.0 °F - 37.4 °F 62% 29.65 in 10.0 mi SSW 9.2 mph 16.1 mph N/A   Clear
8:55 AM 50.0 °F - 35.6 °F 58% 29.65 in 10.0 mi SW 11.5 mph 18.4 mph N/A   Clear
9:15 AM 50.0 °F - 35.6 °F 58% 29.64 in 10.0 mi SW 12.7 mph 18.4 mph N/A   Clear
9:35 AM 51.8 °F - 35.6 °F 54% 29.63 in 10.0 mi SW 10.4 mph - N/A   Clear
9:55 AM 51.8 °F - 35.6 °F 54% 29.63 in 10.0 mi SW 16.1 mph 23.0 mph N/A   Clear
10:15 AM 53.6 °F - 35.6 °F 51% 29.63 in 10.0 mi SW 17.3 mph 25.3 mph N/A   Clear
10:35 AM 53.6 °F - 37.4 °F 54% 29.62 in 10.0 mi SW 16.1 mph 23.0 mph N/A   Clear
10:55 AM 53.6 °F - 37.4 °F 54% 29.62 in 10.0 mi SW 16.1 mph 26.5 mph N/A   Clear
11:15 AM 55.4 °F - 37.4 °F 51% 29.61 in 10.0 mi SW 15.0 mph 19.6 mph N/A   Clear
11:35 AM 55.4 °F - 37.4 °F 51% 29.60 in 10.0 mi SW 13.8 mph 19.6 mph N/A   Clear
11:55 AM 55.4 °F - 37.4 °F 51% 29.60 in 10.0 mi SW 9.2 mph 18.4 mph N/A   Clear
12:15 PM 57.2 °F - 37.4 °F 48% 29.59 in 10.0 mi SW 9.2 mph - N/A   Clear
12:35 PM 59.0 °F - 37.4 °F 45% 29.58 in 10.0 mi SW 12.7 mph 16.1 mph N/A   Clear
12:55 PM 59.0 °F - 37.4 °F 45% 29.57 in 10.0 mi SSW 10.4 mph 17.3 mph N/A   Clear
1:15 PM 59.0 °F - 37.4 °F 45% 29.57 in 10.0 mi South 11.5 mph 17.3 mph N/A   Clear
1:35 PM 57.2 °F - 37.4 °F 48% 29.56 in 10.0 mi SSW 9.2 mph - N/A   Clear
1:55 PM 57.2 °F - 37.4 °F 48% 29.56 in 10.0 mi SSW 10.4 mph - N/A   Clear
2:15 PM 59.0 °F - 37.4 °F 45% 29.56 in 10.0 mi SW 8.1 mph - N/A   Clear
2:35 PM 57.2 °F - 37.4 °F 48% 29.57 in 10.0 mi SW 9.2 mph - N/A   Clear
2:55 PM 57.2 °F - 37.4 °F 48% 29.58 in 10.0 mi WSW 13.8 mph 20.7 mph N/A   Clear
3:15 PM 55.4 °F - 37.4 °F 51% 29.57 in 10.0 mi SW 10.4 mph - N/A   Clear
3:35 PM 55.4 °F - 37.4 °F 51% 29.57 in 10.0 mi SW 8.1 mph - N/A   Clear
3:55 PM 55.4 °F - 37.4 °F 51% 29.57 in 10.0 mi SW 8.1 mph - N/A   Clear
4:15 PM 53.6 °F - 37.4 °F 54% 29.57 in 10.0 mi SW 8.1 mph - N/A   Clear
4:35 PM 53.6 °F - 37.4 °F 54% 29.57 in 10.0 mi WSW 8.1 mph - N/A   Clear
4:55 PM 50.0 °F - 37.4 °F 62% 29.57 in 10.0 mi SW 5.8 mph - N/A   Clear
5:15 PM 46.4 °F 43.5 °F 37.4 °F 71% 29.57 in 10.0 mi WSW 5.8 mph - N/A   Clear
5:35 PM 48.2 °F - 37.4 °F 66% 29.57 in 10.0 mi WSW 5.8 mph - N/A   Clear
5:55 PM 46.4 °F 43.5 °F 35.6 °F 66% 29.57 in 10.0 mi WSW 5.8 mph - N/A   Clear
6:35 PM 48.2 °F - 37.4 °F 66% 29.55 in 10.0 mi WSW 4.6 mph - N/A   Overcast
6:55 PM 48.2 °F - 37.4 °F 66% 29.54 in 10.0 mi SW 5.8 mph - N/A   Overcast
7:15 PM 50.0 °F - 37.4 °F 62% 29.54 in 10.0 mi WSW 8.1 mph - N/A   Overcast
7:55 PM 46.4 °F 41.5 °F 35.6 °F 66% 29.56 in 10.0 mi North 10.4 mph - N/A   Overcast
8:15 PM 44.6 °F 38.4 °F 35.6 °F 71% 29.57 in 10.0 mi NNW 12.7 mph 18.4 mph N/A   Overcast
8:35 PM 42.8 °F 35.8 °F 33.8 °F 70% 29.58 in 10.0 mi NW 13.8 mph 18.4 mph N/A   Overcast
8:55 PM 41.0 °F 33.1 °F 33.8 °F 76% 29.58 in 10.0 mi NW 15.0 mph - N/A   Overcast
9:15 PM 41.0 °F 34.3 °F 33.8 °F 76% 29.59 in 10.0 mi WNW 11.5 mph 21.9 mph N/A   Light Drizzle
9:35 PM 37.4 °F 29.3 °F 32.0 °F 81% 29.60 in 5.0 mi WNW 12.7 mph - N/A   Drizzle
9:55 PM 35.6 °F 27.1 °F 33.8 °F 93% 29.60 in 3.0 mi WNW 12.7 mph 19.6 mph N/A   Drizzle
10:15 PM 33.8 °F 24.8 °F 33.8 °F 100% 29.61 in 2.0 mi West 12.7 mph 18.4 mph N/A   Heavy Drizzle
10:35 PM 32.0 °F 20.5 °F 32.0 °F 100% 29.61 in 2.5 mi West 18.4 mph 27.6 mph N/A Snow Light Snow
10:55 PM 32.0 °F 21.2 °F 30.2 °F 93% 29.62 in 2.0 mi West 16.1 mph 23.0 mph N/A Snow Light Snow
11:15 PM 30.2 °F 20.8 °F 30.2 °F 100% 29.61 in 5.0 mi West 11.5 mph 16.1 mph N/A Snow Light Snow
11:35 PM 30.2 °F 19.3 °F 30.2 °F 100% 29.61 in 10.0 mi West 15.0 mph 19.6 mph N/A Snow Light Snow
11:55 PM 30.2 °F 19.8 °F 28.4 °F 93% 29.61 in 10.0 mi West 13.8 mph 20.7 mph N/A   Overcast